Vienna, OH

5:10 AM EST on January 22, 2017 (GMT -0500)
Youngstown-Warren Regional

Weather History for KYNG - October, 2013

Change the Weather History Date:

Monday, October 7, 2013

  Actual Average Record
Temperature  
Mean Temperature 54 °F 54 °F  
Max Temperature 59 °F 64 °F 87 °F (1941)
Min Temperature 48 °F 44 °F 26 °F (1999)
Degree Days  
Heating Degree Days 11 12  
Month to date heating degree days 11 75  
Since 1 July heating degree days 200 258  
Cooling Degree Days 0 0  
Month to date cooling degree days 21 3  
Year to date cooling degree days 630 541  
Growing Degree Days 2 (Base 50)    
Moisture  
Dew Point 47 °F    
Average Humidity 81    
Maximum Humidity 100    
Minimum Humidity 61    
Precipitation  
Precipitation 0.58 in 0.09 in 1.08 in (1951)
Month to date precipitation 0.77 0.68  
Year to date precipitation 30.20 30.65  
Snow  
Snow 0.00 in 0.00 in - ()
Month to date snowfall 0.0 0.0  
Since 1 July snowfall 0.0 0.0  
Since 1 September snowfall 0.0 0.0  
Snow Depth 0.00 in    
Sea Level Pressure  
Sea Level Pressure 29.86 in    
Wind  
Wind Speed 11 mph (WSW)    
Max Wind Speed 24 mph    
Max Gust Speed 29 mph    
Visibility 9 miles    
Events Rain    
T = Trace of Precipitation, MM = Missing Value Source: NWS Daily Summary

Daily Weather History Graph

Daily Weather History Graph

Search for Another Location

Airport or City:

Trip Planner

Search our weather history database for the weather conditions in past years. The results will help you decide how hot, cold, wet, or windy it might be!

Date:

Astronomy

Oct. 07, 2013 Rise Set
Actual Time 7:25 AM EDT 6:54 PM EDT
Civil Twilight 6:58 AM EDT 7:21 PM EDT
Nautical Twilight 6:26 AM EDT 7:53 PM EDT
Astronomical Twilight 5:54 AM EDT 8:25 PM EDT
Moon 10:16 AM EDT (10/7) 8:35 PM EDT (10/7)
Length of Visible Light 12h 23m
Length of Day
11h 28m
Waxing Crescent, 8% of the Moon is Illuminated
Oct 7
Waxing Crescent
Oct 11
First Quarter
Oct 18
Full
Oct 26
Last Quarter
Nov 3
New

Hourly Weather History & Observations

Time (EDT) Temp. Dew Point Humidity Pressure Visibility Wind Dir Wind Speed Gust Speed Precip Events Conditions
12:16 AM 66.2 °F 62.6 °F 88% 29.75 in 10.0 mi WSW 6.9 mph - N/A   Overcast
12:36 AM 62.6 °F 59.0 °F 88% 29.75 in 10.0 mi WNW 17.3 mph 25.3 mph N/A   Overcast
12:51 AM 60.1 °F 53.1 °F 78% 29.73 in 10.0 mi WNW 13.8 mph 23.0 mph 0.00 in Rain Light Rain
1:16 AM 59.0 °F 53.6 °F 82% 29.74 in 10.0 mi West 5.8 mph - 0.00 in Rain Light Rain
1:51 AM 57.0 °F 53.1 °F 87% 29.74 in 10.0 mi WSW 10.4 mph - 0.03 in Rain Light Rain
2:18 AM 55.4 °F 53.6 °F 94% 29.76 in 10.0 mi WSW 8.1 mph 19.6 mph 0.00 in Rain Light Rain
2:51 AM 55.0 °F 54.0 °F 96% 29.73 in 7.0 mi West 6.9 mph - 0.01 in Rain Light Rain
3:51 AM 54.0 °F 53.1 °F 97% 29.77 in 4.0 mi WSW 17.3 mph 24.2 mph 0.15 in Rain Light Rain
4:51 AM 53.1 °F 52.0 °F 96% 29.74 in 3.0 mi SSW 5.8 mph - 0.15 in Rain Light Rain
5:51 AM 53.1 °F 51.1 °F 93% 29.77 in 4.0 mi SW 11.5 mph - 0.16 in Rain Light Rain
6:51 AM 53.1 °F 51.1 °F 93% 29.78 in 10.0 mi SW 8.1 mph - 0.07 in Rain Light Rain
7:37 AM 51.8 °F 48.2 °F 88% 29.80 in 10.0 mi WSW 15.0 mph 19.6 mph 0.01 in Rain Light Rain
7:51 AM 51.1 °F 48.0 °F 89% 29.79 in 6.0 mi West 13.8 mph - 0.01 in Rain Light Rain
8:39 AM 48.2 °F 42.8 °F 82% 29.83 in 10.0 mi West 12.7 mph - 0.00 in   Mostly Cloudy
8:51 AM 48.0 °F 43.0 °F 83% 29.83 in 10.0 mi West 10.4 mph 18.4 mph 0.00 in   Mostly Cloudy
9:51 AM 50.0 °F 43.0 °F 77% 29.85 in 10.0 mi WSW 10.4 mph - N/A   Mostly Cloudy
10:42 AM 51.8 °F 42.8 °F 71% 29.85 in 10.0 mi West 16.1 mph 25.3 mph N/A   Mostly Cloudy
10:51 AM 52.0 °F 42.1 °F 69% 29.85 in 10.0 mi WSW 18.4 mph 25.3 mph N/A   Mostly Cloudy
11:51 AM 52.0 °F 41.0 °F 66% 29.88 in 10.0 mi West 15.0 mph 21.9 mph N/A   Overcast
12:29 PM 51.8 °F 41.0 °F 67% 29.89 in 10.0 mi WSW 10.4 mph - N/A   Overcast
12:51 PM 54.0 °F 43.0 °F 66% 29.88 in 10.0 mi WSW 13.8 mph - N/A   Overcast
1:18 PM 53.6 °F 42.8 °F 67% 29.87 in 10.0 mi West 13.8 mph - N/A   Overcast
1:51 PM 53.1 °F 42.1 °F 66% 29.88 in 10.0 mi WSW 17.3 mph 27.6 mph N/A   Overcast
2:51 PM 53.1 °F 42.1 °F 66% 29.90 in 10.0 mi West 16.1 mph 27.6 mph N/A   Overcast
3:51 PM 55.0 °F 42.1 °F 62% 29.92 in 10.0 mi WSW 17.3 mph 24.2 mph N/A   Mostly Cloudy
4:51 PM 55.9 °F 42.1 °F 60% 29.94 in 10.0 mi WSW 15.0 mph - N/A   Scattered Clouds
5:51 PM 55.0 °F 43.0 °F 64% 29.96 in 10.0 mi SW 11.5 mph - N/A   Mostly Cloudy
6:51 PM 54.0 °F 44.1 °F 69% 29.99 in 10.0 mi SW 6.9 mph - N/A   Overcast
7:51 PM 54.0 °F 44.1 °F 69% 30.02 in 10.0 mi SSW 6.9 mph - N/A   Overcast
8:51 PM 54.0 °F 44.1 °F 69% 30.05 in 10.0 mi SW 8.1 mph - N/A   Overcast
9:51 PM 54.0 °F 44.1 °F 69% 30.08 in 10.0 mi WSW 8.1 mph - 0.00 in   Overcast
10:51 PM 54.0 °F 45.0 °F 72% 30.11 in 10.0 mi WSW 6.9 mph - N/A   Overcast
11:51 PM 51.1 °F 44.1 °F 77% 30.13 in 10.0 mi WSW 6.9 mph - N/A   Scattered Clouds